Location: Unspecified
(0.0000°N, 0.0000°E)
Time: 11:06:09
(UTC+00:00)

LightSail 2 - Pass Details

Date: 22 November 2019
Orbit: 696 x 730 km, 24.0° (Epoch: 14 December)

Event Time Altitude Azimuth Distance (km) Brightness Sun altitude
Rises 19:16:26 0° 257° (WSW) 3,064 9.9 -21.1°
Reaches altitude 10° 19:18:58 10° 264° (W) 2,142 8.7 -21.7°
Maximum altitude 19:23:44 42° 335° (NNW) 982 5.8 -22.8°
Enters shadow 19:24:37 38° 2° (N) 1,043 5.8 -23.0°
